Location: Unspecified
(0.0000°N, 0.0000°E)
Time: 08:48:02
(UTC+00:00)

Hubble Space Telescope - Pass Details

Date: 26 April 2017
Orbit: 538 x 541 km, 28.5° (Epoch: 27 June)

Event Time Altitude Azimuth Distance (km) Brightness Sun altitude
Rises 19:54:31 0° 313° (NW) 2,674 5.3 -28.3°
Reaches altitude 10° 19:56:54 10° 321° (NW) 1,785 4.1 -28.8°
Enters shadow 19:58:33 21° 335° (NNW) 1,226 2.9 -29.2°
